Weather History for Philadelphia Wings Airport, PA

Change the Weather History Date:

Monday, March 18, 2013

  Actual Average (KPNE) Record (KPNE)
Temperature  
Mean Temperature 36 °F -  
Max Temperature 41 °F 48 °F 78 °F (2011)
Min Temperature 30 °F 31 °F 28 °F (2005)
Degree Days  
Heating Degree Days 30    
Moisture  
Dew Point 25 °F    
Average Humidity 71    
Maximum Humidity 100    
Minimum Humidity 48    
Precipitation  
Precipitation 0.29 in - - ()
Sea Level Pressure  
Sea Level Pressure 30.21 in    
Wind  
Wind Speed 6 mph (ENE)    
Max Wind Speed 16 mph    
Max Gust Speed 22 mph    
Visibility 8 miles    
Events      
Averages and records for this station are not official NWS values.
T = Trace of Precipitation, MM = Missing Value Source: NWS Daily Summary

Daily Weather History Graph

Daily Weather History Graph

Search for Another Location

Airport:

Trip Planner

Search our weather history database for the weather conditions in past years. The results will help you decide how hot, cold, wet, or windy it might be!

Date:

Astronomy

Mar. 18, 2013 Rise Set
Actual Time 7:07 AM EDT 7:11 PM EDT
Civil Twilight 6:40 AM EDT 7:38 PM EDT
Nautical Twilight 6:08 AM EDT 8:10 PM EDT
Astronomical Twilight 5:36 AM EDT 8:42 PM EDT
Moon 11:04 AM EDT (3/18) 1:08 AM EDT (3/18)
Length of Visible Light 12h 58m
Length of Day
12h 03m
Waxing Crescent, 40% of the Moon is Illuminated
Mar 18
Waxing Crescent
Mar 19
First Quarter
Mar 27
Full
Apr 3
Last Quarter
Apr 10
New

Hourly Weather History & Observations

Time (EDT) Temp. Windchill Dew Point Humidity Pressure Visibility Wind Dir Wind Speed Gust Speed Precip Events Conditions
12:15 AM 32.0 °F - 21.2 °F 64% 30.28 in 10.0 mi Calm Calm - N/A   Clear
12:35 AM 32.0 °F - 19.4 °F 60% 30.29 in 10.0 mi Calm Calm - N/A   Clear
12:55 AM 32.0 °F - 21.2 °F 64% 30.29 in 10.0 mi Calm Calm - N/A   Clear
1:15 AM 32.0 °F - 19.4 °F 60% 30.28 in 10.0 mi Calm Calm - N/A   Clear
1:35 AM 32.0 °F - 19.4 °F 60% 30.29 in 10.0 mi Calm Calm - N/A   Clear
1:55 AM 32.0 °F - 19.4 °F 60% 30.30 in 10.0 mi Calm Calm - N/A   Clear
2:15 AM 30.2 °F - 21.2 °F 69% 30.31 in 10.0 mi Calm Calm - N/A   Clear
2:35 AM 30.2 °F - 21.2 °F 69% 30.31 in 10.0 mi Calm Calm - N/A   Clear
2:55 AM 30.2 °F - 21.2 °F 69% 30.32 in 10.0 mi Calm Calm - N/A   Clear
3:15 AM 30.2 °F - 21.2 °F 69% 30.32 in 10.0 mi Calm Calm - N/A   Clear
3:35 AM 30.2 °F - 21.2 °F 69% 30.33 in 10.0 mi Calm Calm - N/A   Clear
3:55 AM 30.2 °F 26.7 °F 19.4 °F 64% 30.32 in 10.0 mi NE 3.5 mph - N/A   Clear
4:15 AM 30.2 °F 26.7 °F 19.4 °F 64% 30.32 in 10.0 mi NE 3.5 mph - N/A   Clear
4:35 AM 30.2 °F 26.7 °F 17.6 °F 60% 30.33 in 10.0 mi NE 3.5 mph - N/A   Clear
4:55 AM 32.0 °F 25.6 °F 17.6 °F 55% 30.33 in 10.0 mi NE 6.9 mph - N/A   Clear
5:15 AM 32.0 °F 25.6 °F 17.6 °F 55% 30.33 in 10.0 mi ENE 6.9 mph - N/A   Clear
5:35 AM 32.0 °F 24.2 °F 17.6 °F 55% 30.33 in 10.0 mi NE 9.2 mph - N/A   Clear
5:55 AM 32.0 °F 24.2 °F 15.8 °F 51% 30.34 in 10.0 mi ENE 9.2 mph - N/A   Clear
6:15 AM 32.0 °F 25.6 °F 15.8 °F 51% 30.34 in 10.0 mi ENE 6.9 mph - N/A   Clear
6:35 AM 32.0 °F 23.6 °F 14.0 °F 48% 30.35 in 10.0 mi ENE 10.4 mph - N/A   Clear
6:55 AM 32.0 °F 24.8 °F 14.0 °F 48% 30.35 in 10.0 mi ENE 8.1 mph - N/A   Clear
7:15 AM 32.0 °F 23.6 °F 14.0 °F 48% 30.35 in 10.0 mi ENE 10.4 mph - N/A   Clear
7:35 AM 32.0 °F 24.8 °F 14.0 °F 48% 30.35 in 10.0 mi East 8.1 mph - N/A   Clear
7:55 AM 32.0 °F 25.6 °F 14.0 °F 48% 30.35 in 10.0 mi East 6.9 mph - N/A   Clear
8:15 AM 32.0 °F 24.8 °F 14.0 °F 48% 30.35 in 10.0 mi East 8.1 mph - N/A   Clear
8:55 AM 32.0 °F 23.6 °F 14.0 °F 48% 30.34 in 10.0 mi East 10.4 mph - N/A   Clear
9:15 AM 32.0 °F 24.2 °F 15.8 °F 51% 30.35 in 10.0 mi East 9.2 mph - N/A   Clear
9:35 AM 32.0 °F 26.4 °F 17.6 °F 55% 30.35 in 10.0 mi East 5.8 mph - N/A   Clear
9:55 AM 33.8 °F 26.4 °F 17.6 °F 52% 30.35 in 10.0 mi ENE 9.2 mph - N/A   Clear
10:15 AM 33.8 °F 26.4 °F 19.4 °F 56% 30.34 in 10.0 mi East 9.2 mph - N/A   Clear
10:35 AM 33.8 °F 24.8 °F 19.4 °F 56% 30.33 in 10.0 mi East 12.7 mph - N/A   Clear
10:55 AM 35.6 °F 27.1 °F 21.2 °F 56% 30.32 in 10.0 mi East 12.7 mph 20.7 mph N/A   Clear
11:15 AM 35.6 °F 28.0 °F 23.0 °F 60% 30.31 in 10.0 mi East 10.4 mph - N/A   Clear
11:35 AM 35.6 °F 27.5 °F 23.0 °F 60% 30.30 in 10.0 mi East 11.5 mph - N/A   Clear
11:55 AM 37.4 °F 29.8 °F 23.0 °F 56% 30.29 in 10.0 mi East 11.5 mph 18.4 mph N/A   Scattered Clouds
12:15 PM 37.4 °F 29.3 °F 24.8 °F 60% 30.28 in 10.0 mi ESE 12.7 mph - N/A   Scattered Clouds
12:35 PM 39.2 °F 32.0 °F 24.8 °F 56% 30.27 in 10.0 mi ENE 11.5 mph 16.1 mph N/A   Scattered Clouds
12:55 PM 39.2 °F 32.0 °F 24.8 °F 56% 30.25 in 10.0 mi East 11.5 mph 17.3 mph N/A   Clear
1:15 PM 39.2 °F 31.6 °F 24.8 °F 56% 30.23 in 10.0 mi East 12.7 mph 16.1 mph N/A   Clear
1:35 PM 41.0 °F 34.7 °F 24.8 °F 53% 30.23 in 10.0 mi East 10.4 mph 16.1 mph N/A   Mostly Cloudy
1:55 PM 41.0 °F 34.7 °F 26.6 °F 57% 30.21 in 10.0 mi East 10.4 mph 16.1 mph N/A   Overcast
2:15 PM 41.0 °F 35.2 °F 26.6 °F 57% 30.20 in 10.0 mi East 9.2 mph 16.1 mph N/A   Overcast
2:35 PM 41.0 °F 35.2 °F 28.4 °F 61% 30.19 in 10.0 mi ESE 9.2 mph - N/A   Mostly Cloudy
2:55 PM 39.2 °F 32.0 °F 30.2 °F 70% 30.19 in 10.0 mi East 11.5 mph 20.7 mph N/A   Mostly Cloudy
3:15 PM 37.4 °F 29.3 °F 30.2 °F 75% 30.19 in 7.0 mi ESE 12.7 mph 20.7 mph N/A   Overcast
3:35 PM 35.6 °F 28.6 °F 32.0 °F 87% 30.18 in 2.5 mi East 9.2 mph - N/A   Overcast
3:55 PM 35.6 °F 27.5 °F 33.8 °F 93% 30.16 in 1.5 mi East 11.5 mph - N/A   Overcast
4:15 PM 35.6 °F 27.1 °F 33.8 °F 93% 30.14 in 1.5 mi East 12.7 mph 19.6 mph N/A   Overcast
4:35 PM 35.6 °F 26.6 °F 33.8 °F 93% 30.12 in 1.8 mi East 13.8 mph 20.7 mph N/A   Overcast
5:15 PM 33.8 °F 25.3 °F 32.0 °F 93% 30.11 in 2.0 mi East 11.5 mph 20.7 mph N/A   Overcast
5:35 PM 33.8 °F 24.8 °F 32.0 °F 93% 30.10 in 2.0 mi East 12.7 mph 19.6 mph N/A   Overcast
5:55 PM 33.8 °F 23.5 °F 32.0 °F 93% 30.06 in 2.0 mi East 16.1 mph 21.9 mph 0.02 in   Overcast
6:15 PM 33.8 °F 24.8 °F 32.0 °F 93% 30.07 in 1.8 mi East 12.7 mph 19.6 mph 0.02 in   Overcast
6:35 PM 33.8 °F 24.3 °F 32.0 °F 93% 30.06 in 2.0 mi East 13.8 mph 19.6 mph 0.05 in   Overcast
6:55 PM 33.8 °F 25.3 °F 32.0 °F 93% 30.07 in 4.0 mi East 11.5 mph 16.1 mph 0.05 in   Overcast
7:15 PM 33.8 °F 24.8 °F 33.8 °F 100% 30.06 in 5.0 mi East 12.7 mph 18.4 mph 0.01 in   Overcast
7:35 PM 33.8 °F 25.8 °F 33.8 °F 100% 30.05 in 2.5 mi ENE 10.4 mph 16.1 mph 0.04 in   Overcast
8:15 PM 33.8 °F 25.3 °F 33.8 °F 100% 30.03 in 3.0 mi East 11.5 mph 18.4 mph 0.02 in   Overcast
8:35 PM 33.8 °F 24.8 °F 33.8 °F 100% 30.01 in 4.0 mi East 12.7 mph 19.6 mph 0.03 in   Overcast
8:55 PM 33.8 °F 23.5 °F 33.8 °F 100% 30.00 in 5.0 mi East 16.1 mph 21.9 mph 0.04 in   Overcast
9:15 PM 33.8 °F 24.8 °F 33.8 °F 100% 29.99 in 4.0 mi ENE 12.7 mph 17.3 mph 0.01 in   Overcast
9:35 PM 33.8 °F 24.3 °F 33.8 °F 100% 29.99 in 4.0 mi ENE 13.8 mph - 0.03 in   Overcast
9:55 PM 35.6 °F 28.0 °F 33.8 °F 93% 29.99 in 4.0 mi ENE 10.4 mph 17.3 mph 0.06 in   Overcast
10:15 PM 35.6 °F 28.6 °F 33.8 °F 93% 29.98 in 5.0 mi NE 9.2 mph - 0.02 in   Overcast
10:35 PM 35.6 °F 30.7 °F 33.8 °F 93% 29.98 in 5.0 mi ENE 5.8 mph - 0.03 in   Overcast
10:55 PM 35.6 °F 28.0 °F 33.8 °F 93% 29.95 in 5.0 mi ENE 10.4 mph 17.3 mph 0.05 in   Overcast
11:15 PM 35.6 °F 26.2 °F 33.8 °F 93% 29.92 in 5.0 mi ENE 15.0 mph 20.7 mph 0.01 in   Overcast
11:55 PM 35.6 °F 27.5 °F 35.6 °F 100% 29.90 in 5.0 mi ENE 11.5 mph 16.1 mph 0.03 in   Overcast